Classements 2013

Scratch Copines Entreprises Mère - Filles Maman Grand maman

Les résultats « Scratch »

Place Dossard Nom Équipe Temp individuel
151 3 734 Beatrice Struwe WELEDA 00:31:16
152 3 626 Valerie Chagnaud MAIRIE DE PARIS 00:31:17
153 37 993 Melanie Pecheur LES CHEURPé 00:31:19
154 3 581 Lucie Le Gall MAIRIE DE PARIS 00:31:19
155 36 493 Florence Francot
00:31:20
156 29 902 Isalina Trocherie ONE TEAM 00:31:21
157 39 905 Pascale Ordonnaud LES FILLES 00:31:21
158 21 609 Elena Perez MORPHO 00:31:21
159 19 197 Muriel Colin NEXTER SYSTEMS 00:31:21
160 35 855 Pauline Rigoulet
00:31:22
161 17 496 Joanna Hammann VINCI ENERGIES 00:31:22
162 21 485 Emilie Delbes ADMINISTRATION PENITENTIAIRE 00:31:22
163 13 529 Nathalie Luvet GROUPAMA 00:31:23
164 28 445 Charlotte Halb
00:31:24
165 27 809 Anne Claire Bootz
00:31:24
166 19 760 Justine Michel HAYS 00:31:25
167 18 329 Betty Brugard SHISEIDO 00:31:25
168 39 369 Jennifer Segard
00:31:26
169 5 532 Malika Mayeux ORANGE 00:31:26
170 3 577 Beatrice Lesage MAIRIE DE PARIS 00:31:27
171 11 067 Anne Havn TOTAL 00:31:28
172 29 049 Andrea Gondekova ONE TEAM 00:31:28
173 7 095 Emmanuelle Le Loarer MC²I GROUPE 00:31:28
174 16 689 Genevieve Colas BANQUE POPULAIRE VAL DE FRANCE 00:31:29
175 6 800 Anne Odoit MAUNA KEA TECHNOLOGIES 00:31:29
176 575 Joseophine Gauzere
00:31:29
177 522 Pernille Christiansen REEBOK VIP 00:31:30
178 34 849 Angelica Norhagen MARIANNE NORHAGEN 00:31:30
179 18 200 Patricia Matio SHISEIDO 00:31:30
180 19 758 Marjorie Berger HAYS 00:31:30
181 9 101 Aurelie Sanquer CHRISTIAN DIOR PARFUMS 00:31:30
182 18 191 Nathalie Maujean SHISEIDO 00:31:31
183 6 177 Marlene Lemos Da Rocha LIDO 00:31:31
184 22 377 Natacha Le Quintrec A3F 00:31:31
185 29 343 Morgane Faivre D Arcier
00:31:31
186 13 130 Alexandra Poirier CHANEL 00:31:31
187 23 512 Keiko Nowacka KGA AVOCATS 00:31:32
188 14 001 Audrey Ben Ayoum GRANT THORNTON 00:31:32
189 17 566 Valerie Le Noac H SOLENDI-3F 00:31:33
190 31 525 Marie Solene Perrier
00:31:33
191 36 863 Georgina Connors KATE CONNORS 00:31:33
192 12 920 Elsa Lagache KYRIBA SEMEA 00:31:35
193 30 828 Yamina Zouaid Z ELIE 00:31:36
194 3 326 Lydie Vincent Garnier AMAURY MEDIAS 00:31:37
195 8 353 Laurence Robbe YVES ROCHER 00:31:38
196 13 068 Gaelle Fusay ALTEN FUND FOR ENGINEERING 00:31:39
197 17 626 Estelle Philippe SOLENDI-3F 00:31:39
198 9 120 Catherine Bayada Boulmier CHRISTIAN DIOR PARFUMS 00:31:40
199 13 281 Christelle Repincay GROUPAMA 00:31:40
200 18 855 Sophie Jankowiak TAJ 00:31:41